CW8306 Weather Reports


Display with metric or nautical units.
time (UTC)temp
F
wind
direction
speed
MPH
gust
MPH
rain 1hr
in
rain 24hr
in
rain mn
in
humidity
%
barometer
mb
20260902094512 58 215 0.0 0.0 0.00 0.00 0.00 94 1015.0
20260902094007 58 215 0.0 0.0 0.00 0.00 0.00 94 1015.0
20260902093502 58 219 0.0 0.0 0.00 0.00 0.00 94 1015.1
20260902093001 58 219 0.0 0.0 0.00 0.00 0.00 94 1015.1
20260902092457 58 216 0.0 0.0 0.00 0.00 0.00 94 1014.8
20260902091957 58 220 0.0 1.0 0.00 0.00 0.00 94 1014.9
20260902091452 58 221 0.0 0.0 0.00 0.00 0.00 94 1015.0
20260902090948 58 214 0.0 0.0 0.00 0.00 0.00 94 1015.1
20260902090444 59 213 0.0 0.0 0.00 0.00 0.00 94 1015.1
20260902085942 59 219 0.0 0.0 0.00 0.00 0.00 94 1015.1
20260902085437 59 214 0.0 0.0 0.00 0.00 0.00 94 1015.0
20260902084932 59 222 0.0 1.0 0.00 0.00 0.00 94 1015.0
20260902084429 59 252 0.0 1.0 0.00 0.00 0.00 94 1014.9
20260902083919 59 244 0.0 0.0 0.00 0.00 0.00 94 1015.0
20260902083419 59 217 0.0 1.0 0.00 0.00 0.00 94 1015.2
20260902082919 59 222 0.0 0.0 0.00 0.00 0.00 94 1015.2
20260902082414 59 218 0.0 0.0 0.00 0.00 0.00 94 1014.9
20260902081911 58 214 0.0 0.0 0.00 0.00 0.00 94 1014.9
20260902081407 58 218 0.0 0.0 0.00 0.00 0.00 94 1015.0
20260902080902 58 212 0.0 0.0 0.00 0.00 0.00 94 1015.0
20260902080358 58 212 0.0 0.0 0.00 0.00 0.00 94 1014.7
20260902075857 59 212 0.0 0.0 0.00 0.00 0.00 94 1014.9
20260902075354 59 212 0.0 0.0 0.00 0.00 0.00 94 1014.8
20260902074849 59 219 0.0 0.0 0.00 0.00 0.00 94 1014.7
20260902074345 59 217 0.0 0.0 0.00 0.00 0.00 94 1015.0
20260902073840 58 214 0.0 0.0 0.00 0.00 0.00 94 1015.0
20260902073336 58 214 0.0 0.0 0.00 0.00 0.00 94 1014.9
20260902072831 58 213 0.0 0.0 0.00 0.00 0.00 94 1015.0
20260902072326 59 213 0.0 0.0 0.00 0.00 0.00 94 1014.8
20260902071823 59 212 0.0 0.0 0.00 0.00 0.00 94 1014.7
20260902071318 59 214 0.0 0.0 0.00 0.00 0.00 93 1014.9
20260902070814 59 215 0.0 0.0 0.00 0.00 0.00 93 1015.0
20260902070314 59 220 0.0 0.0 0.00 0.00 0.00 93 1014.9
20260902065813 59 212 0.0 0.0 0.00 0.00 0.00 93 1014.7
20260902065308 59 212 0.0 0.0 0.00 0.00 0.00 93 1014.8
20260902064804 59 211 0.0 0.0 0.00 0.00 0.00 93 1014.7
20260902064259 59 211 0.0 0.0 0.00 0.00 0.00 93 1014.7
20260902063755 59 212 0.0 0.0 0.00 0.00 0.00 93 1014.8
20260902063249 60 216 0.0 0.0 0.00 0.00 0.00 93 1015.1
20260902062743 60 217 0.0 0.0 0.00 0.00 0.00 93 1014.7
20260902062238 60 213 0.0 0.0 0.00 0.00 0.00 93 1014.8
20260902061736 60 228 0.0 0.0 0.00 0.00 0.00 93 1014.9
20260902061232 60 219 0.0 0.0 0.00 0.00 0.00 93 1014.7
20260902060729 60 214 0.0 0.0 0.00 0.00 0.00 93 1014.6
20260902060225 60 216 0.0 0.0 0.00 0.00 0.00 93 1014.7
20260902055720 60 214 0.0 0.0 0.00 0.00 0.00 93 1014.5
20260902055216 60 218 0.0 0.0 0.00 0.00 0.00 93 1014.6
20260902054711 60 214 0.0 0.0 0.00 0.00 0.00 93 1014.6
20260902054207 60 214 0.0 0.0 0.00 0.00 0.00 93 1014.6
20260902053702 60 214 0.0 0.0 0.00 0.00 0.00 92 1014.6
20260902053202 60 214 0.0 0.0 0.00 0.00 0.00 92 1014.4
20260902052701 60 213 0.0 0.0 0.00 0.00 0.00 92 1014.7
20260902052157 60 214 0.0 0.0 0.00 0.00 0.00 92 1014.5
20260902051656 60 214 0.0 0.0 0.00 0.00 0.00 92 1014.8
20260902051151 60 214 0.0 0.0 0.00 0.00 0.00 92 1014.6
20260902050651 60 214 0.0 0.0 0.00 0.00 0.00 92 1014.4
20260902050146 60 214 0.0 0.0 0.00 0.00 0.00 92 1014.6
20260902045641 60 213 0.0 0.0 0.00 0.00 0.00 92 1014.3
20260902045138 60 214 0.0 0.0 0.00 0.00 0.00 91 1014.5
20260902044638 60 216 0.0 0.0 0.00 0.00 0.00 91 1014.7
20260902044134 60 211 0.0 0.0 0.00 0.00 0.00 91 1014.5
20260902043629 61 208 0.0 0.0 0.00 0.00 0.00 91 1014.6
20260902043124 60 208 0.0 0.0 0.00 0.00 0.00 91 1014.7
20260902042623 61 208 0.0 0.0 0.00 0.00 0.00 90 1014.4
20260902042119 61 208 0.0 0.0 0.00 0.00 0.00 90 1014.5
20260902041619 60 208 0.0 0.0 0.00 0.00 0.00 90 1014.5
20260902041113 61 208 0.0 0.0 0.00 0.00 0.00 90 1014.6
20260902040608 61 208 0.0 0.0 0.00 0.00 0.00 90 1014.5
20260902040103 61 208 0.0 0.0 0.00 0.00 0.00 90 1014.5
20260902035601 61 208 0.0 0.0 0.00 0.00 0.00 90 1014.6
20260902035056 61 212 0.0 0.0 0.00 0.00 0.00 89 1014.5
20260902034555 61 214 0.0 0.0 0.00 0.00 0.00 89 1014.3
20260902034055 62 214 0.0 0.0 0.00 0.00 0.00 89 1014.3
20260902033554 62 215 0.0 0.0 0.00 0.00 0.00 89 1014.4
20260902033049 62 215 0.0 0.0 0.00 0.00 0.00 88 1014.2
20260902032548 62 216 0.0 0.0 0.00 0.00 0.00 88 1014.2
20260902032043 62 213 0.0 0.0 0.00 0.00 0.00 88 1014.1
20260902031538 62 210 0.0 0.0 0.00 0.00 0.00 88 1014.3
20260902031034 62 215 0.0 0.0 0.00 0.00 0.00 88 1014.3
20260902030529 62 216 0.0 0.0 0.00 0.00 0.00 88 1014.4
20260902030028 62 211 0.0 0.0 0.00 0.00 0.00 87 1014.2
20260902025523 63 210 0.0 0.0 0.00 0.00 0.00 87 1014.2
20260902025018 63 206 0.0 0.0 0.00 0.00 0.00 87 1014.2
20260902024513 63 214 0.0 0.0 0.00 0.00 0.00 86 1014.2
20260902024008 63 212 0.0 0.0 0.00 0.00 0.00 86 1014.0
20260902023504 63 215 0.0 1.0 0.00 0.00 0.00 86 1014.0
20260902023004 63 214 0.0 0.0 0.00 0.00 0.00 86 1014.1
20260902022458 63 210 0.0 0.0 0.00 0.00 0.00 86 1014.1
20260902021954 63 226 0.0 0.0 0.00 0.00 0.00 86 1014.0
20260902021449 63 215 0.0 0.0 0.00 0.00 0.00 85 1014.0
20260902020944 64 214 0.0 0.0 0.00 0.00 0.00 85 1013.8
20260902020440 64 212 0.0 0.0 0.00 0.00 0.00 85 1013.9
20260902015936 64 213 0.0 0.0 0.00 0.00 0.00 84 1013.7
20260902015431 64 213 0.0 0.0 0.00 0.00 0.00 84 1013.9
20260902014926 65 213 0.0 0.0 0.00 0.00 0.00 83 1014.0
20260902014423 65 213 0.0 0.0 0.00 0.00 0.00 83 1014.0
20260902013922 65 215 0.0 0.0 0.00 0.00 0.00 82 1014.0
20260902013418 65 214 0.0 0.0 0.00 0.00 0.00 82 1013.9
20260902012913 66 214 0.0 0.0 0.00 0.00 0.00 81 1013.9
20260902012409 66 222 0.0 0.0 0.00 0.00 0.00 80 1013.9
20260902011904 67 214 0.0 0.0 0.00 0.00 0.00 79 1013.7
20260902011359 67 212 0.0 0.0 0.00 0.00 0.00 79 1013.7
20260902010858 67 214 0.0 0.0 0.00 0.00 0.00 78 1013.8
20260902010353 67 218 0.0 0.0 0.00 0.00 0.00 77 1014.0
20260902005853 68 213 0.0 1.0 0.00 0.00 0.00 77 1013.9
20260902005346 68 214 0.0 0.0 0.00 0.00 0.00 76 1013.7
20260902004843 68 213 0.0 0.0 0.00 0.00 0.00 76 1013.8
20260902004342 68 231 1.0 1.0 0.00 0.00 0.00 75 1013.5
20260902003838 69 225 0.0 1.0 0.00 0.00 0.00 75 1013.7
20260902003333 69 230 1.0 1.0 0.00 0.00 0.00 74 1013.6
20260902002829 69 248 0.0 1.0 0.00 0.00 0.00 73 1013.6
20260902002327 69 229 0.0 2.0 0.00 0.00 0.00 72 1013.7
20260902001823 70 247 1.0 2.0 0.00 0.00 0.00 72 1013.7
20260902001318 70 229 1.0 1.0 0.00 0.00 0.00 71 1013.7
20260902000813 71 243 1.0 3.0 0.00 0.00 0.00 70 1013.7
20260902000312 71 255 2.0 2.0 0.00 0.00 0.00 70 1013.7
20260901235808 71 282 4.0 6.0 0.00 0.00 0.00 69 1013.5
20260901235257 71 197 1.0 2.0 0.00 0.00 0.00 69 1013.7
20260901234756 71 203 1.0 6.0 0.00 0.00 0.00 70 1013.5
20260901234251 71 266 2.0 2.0 0.00 0.00 0.00 70 1013.6
20260901233746 72 226 1.0 3.0 0.00 0.00 0.00 68 1013.7
20260901233242 73 265 1.0 3.0 0.00 0.00 0.00 66 1013.6
20260901232742 73 287 2.0 5.0 0.00 0.00 0.00 67 1013.5
20260901232232 72 311 1.0 5.0 0.00 0.00 0.00 68 1013.7
20260901231728 71 224 0.0 3.0 0.00 0.00 0.00 69 1013.5
20260901231225 72 23 1.0 3.0 0.00 0.00 0.00 68 1013.6
20260901230720 71 236 2.0 3.0 0.00 0.00 0.00 69 1013.5
20260901230219 71 208 1.0 2.0 0.00 0.00 0.00 69 1013.3
20260901225715 71 251 2.0 2.0 0.00 0.00 0.00 69 1013.5
20260901225209 71 260 1.0 3.0 0.00 0.00 0.00 69 1013.5
20260901224705 71 14 2.0 6.0 0.00 0.00 0.00 68 1013.5
20260901224201 71 20 1.0 3.0 0.00 0.00 0.00 68 1013.4
20260901223657 71 200 1.0 3.0 0.00 0.00 0.00 68 1013.3
20260901223151 71 66 2.0 3.0 0.00 0.00 0.00 69 1013.2
20260901222648 71 250 2.0 5.0 0.00 0.00 0.00 69 1013.3
20260901222144 71 249 1.0 7.0 0.00 0.00 0.00 68 1013.3
20260901221639 72 225 2.0 3.0 0.00 0.00 0.00 68 1013.3
20260901221135 71 190 1.0 5.0 0.00 0.00 0.00 68 1013.5
20260901220634 72 265 3.0 6.0 0.00 0.00 0.00 68 1013.4
20260901220134 72 114 0.0 3.0 0.00 0.00 0.00 68 1013.4
20260901215632 72 243 1.0 6.0 0.00 0.00 0.00 67 1013.3
20260901215127 72 314 0.0 3.0 0.00 0.00 0.00 68 1013.2
20260901214625 72 228 0.0 3.0 0.00 0.00 0.00 69 1013.4
20260901214124 72 262 1.0 3.0 0.00 0.00 0.00 68 1013.4
20260901213619 72 311 1.0 3.0 0.00 0.00 0.00 68 1013.2
20260901213114 71 317 2.0 5.0 0.00 0.00 0.00 68 1013.1
20260901212613 71 278 1.0 5.0 0.00 0.00 0.00 68 1013.1
20260901212110 72 273 3.0 5.0 0.00 0.00 0.00 68 1013.2
20260901211604 72 269 1.0 3.0 0.00 0.00 0.00 67 1013.3
20260901211101 72 287 2.0 3.0 0.00 0.00 0.00 68 1013.4
20260901210556 71 237 1.0 5.0 0.00 0.00 0.00 68 1013.1
20260901210053 71 252 3.0 3.0 0.00 0.00 0.00 68 1013.0
20260901205547 71 206 2.0 5.0 0.00 0.00 0.00 68 1013.0
20260901205041 71 206 2.0 5.0 0.00 0.00 0.00 68 1013.0
20260901204538 71 221 1.0 5.0 0.00 0.00 0.00 67 1013.0
20260901204033 71 302 1.0 6.0 0.00 0.00 0.00 68 1012.9
20260901203527 71 275 3.0 8.0 0.00 0.00 0.00 68 1013.1
20260901203022 71 44 3.0 3.0 0.00 0.00 0.00 69 1013.1
20260901202517 71 299 3.0 6.0 0.00 0.00 0.00 68 1013.0
20260901202013 70 178 2.0 7.0 0.00 0.00 0.00 68 1012.9
20260901201508 70 235 3.0 3.0 0.00 0.00 0.00 69 1013.0
20260901201002 70 262 2.0 6.0 0.00 0.00 0.00 69 1012.8
20260901200456 70 137 1.0 5.0 0.00 0.00 0.00 68 1012.8
20260901195956 70 27 2.0 3.0 0.00 0.00 0.00 68 1012.8
20260901195455 70 226 1.0 6.0 0.00 0.00 0.00 68 1013.0
20260901194949 71 237 2.0 7.0 0.00 0.00 0.00 68 1013.1
20260901194444 70 288 2.0 3.0 0.00 0.00 0.00 68 1013.1
20260901193940 70 273 5.0 9.0 0.00 0.00 0.00 68 1013.0
20260901193440 70 239 3.0 8.0 0.00 0.00 0.00 68 1012.9
20260901192939 70 341 2.0 7.0 0.00 0.00 0.00 68 1012.9
20260901192436 70 326 2.0 5.0 0.00 0.00 0.00 69 1012.8
20260901191931 71 73 2.0 5.0 0.00 0.00 0.00 70 1012.9
20260901191427 70 1 3.0 6.0 0.00 0.00 0.00 70 1012.9
20260901190922 71 269 1.0 7.0 0.00 0.00 0.00 70 1012.8
20260901190422 71 283 2.0 10.0 0.00 0.00 0.00 69 1012.7
20260901185920 71 287 5.0 8.0 0.00 0.00 0.00 68 1013.1
20260901185420 71 289 2.0 3.0 0.00 0.00 0.00 68 1012.9
20260901184914 71 274 3.0 11.0 0.00 0.00 0.00 67 1012.7
20260901184410 71 269 5.0 10.0 0.00 0.00 0.00 68 1012.9
20260901183905 71 14 3.0 5.0 0.00 0.00 0.00 68 1012.7
20260901183405 71 3 5.0 6.0 0.00 0.00 0.00 69 1012.8
20260901182901 70 333 2.0 6.0 0.00 0.00 0.00 70 1012.5
20260901182355 70 279 3.0 6.0 0.00 0.00 0.00 71 1012.8
20260901181850 70 178 2.0 3.0 0.00 0.00 0.00 71 1012.7
20260901181345 70 305 5.0 9.0 0.00 0.00 0.00 70 1012.8
20260901180844 71 13 6.0 9.0 0.00 0.00 0.00 69 1012.7
20260901180343 71 100 2.0 7.0 0.00 0.00 0.00 69 1012.8
20260901175842 71 305 2.0 2.0 0.00 0.00 0.00 69 1012.7
20260901175337 71 263 2.0 7.0 0.00 0.00 0.00 69 1012.8
20260901174832 71 170 3.0 6.0 0.00 0.00 0.00 69 1012.6
20260901174328 71 325 4.0 5.0 0.00 0.00 0.00 69 1012.7
20260901173823 70 276 3.0 8.0 0.00 0.00 0.00 70 1012.5
20260901173318 71 316 3.0 6.0 0.00 0.00 0.00 70 1012.5
20260901172815 70 357 3.0 6.0 0.00 0.00 0.00 71 1012.6
20260901172314 69 246 6.0 10.0 0.00 0.00 0.00 71 1012.9
20260901171812 70 327 5.0 8.0 0.00 0.00 0.00 71 1012.7
20260901171311 70 23 4.0 8.0 0.00 0.00 0.00 70 1012.6
20260901170810 70 210 4.0 6.0 0.00 0.00 0.00 71 1012.7
20260901170305 69 8 5.0 7.0 0.00 0.00 0.00 72 1012.7
20260901165803 69 149 2.0 6.0 0.00 0.00 0.00 72 1012.6
20260901165258 69 335 4.0 7.0 0.00 0.00 0.00 71 1012.4
20260901164755 69 218 3.0 6.0 0.00 0.00 0.00 73 1012.4
20260901164250 68 289 3.0 8.0 0.00 0.00 0.00 73 1012.2
20260901163745 69 232 5.0 10.0 0.00 0.00 0.00 72 1012.4
20260901163245 69 171 3.0 13.0 0.00 0.00 0.00 73 1012.2
20260901162740 69 240 2.0 9.0 0.00 0.00 0.00 73 1012.3
20260901162239 69 305 3.0 5.0 0.00 0.00 0.00 73 1012.2
20260901161738 69 26 4.0 10.0 0.00 0.00 0.00 72 1012.1
20260901161233 69 316 5.0 10.0 0.00 0.00 0.00 72 1012.0
20260901160729 69 293 5.0 10.0 0.00 0.00 0.00 73 1012.0
20260901160225 69 308 4.0 13.0 0.00 0.00 0.00 73 1011.9
20260901155723 69 356 3.0 8.0 0.00 0.00 0.00 74 1011.8
20260901155218 68 340 6.0 10.0 0.00 0.00 0.00 74 1011.9
20260901154713 68 283 4.0 8.0 0.00 0.00 0.00 74 1011.7
20260901154208 68 294 5.0 10.0 0.00 0.00 0.00 75 1011.8
20260901153704 68 242 7.0 11.0 0.00 0.00 0.00 75 1011.4
20260901153157 68 203 4.0 10.0 0.00 0.00 0.00 75 1011.4
20260901152652 67 296 4.0 8.0 0.00 0.00 0.00 76 1011.4
20260901152151 67 274 4.0 8.0 0.00 0.00 0.00 77 1011.4
20260901151647 67 249 1.0 8.0 0.00 0.00 0.00 77 1011.3
20260901151146 67 290 2.0 11.0 0.00 0.00 0.00 77 1011.2
20260901150645 66 218 5.0 8.0 0.00 0.00 0.00 78 1011.1
20260901150143 67 285 3.0 6.0 0.00 0.00 0.00 78 1011.3
20260901145641 66 288 4.0 8.0 0.00 0.00 0.00 79 1011.3
20260901145136 66 317 2.0 8.0 0.00 0.00 0.00 80 1011.3
20260901144632 66 229 3.0 8.0 0.00 0.00 0.00 80 1011.6
20260901144127 65 293 5.0 8.0 0.00 0.00 0.00 81 1011.0
20260901143622 65 242 4.0 8.0 0.00 0.00 0.00 82 1011.0
20260901143118 64 313 4.0 8.0 0.00 0.00 0.00 82 1011.1
20260901142614 64 312 3.0 10.0 0.00 0.00 0.00 83 1011.2
20260901142113 64 248 3.0 10.0 0.00 0.00 0.00 83 1011.1
20260901141608 64 253 3.0 9.0 0.00 0.00 0.00 84 1011.0
20260901141103 63 319 5.0 10.0 0.00 0.00 0.00 84 1011.1
20260901140601 63 272 4.0 6.0 0.00 0.00 0.00 84 1010.7
20260901140056 63 295 3.0 10.0 0.00 0.00 0.00 84 1010.8
20260901135555 63 317 4.0 8.0 0.00 0.00 0.00 85 1010.7
20260901135050 62 262 3.0 9.0 0.00 0.00 0.00 86 1010.6
20260901134547 62 260 2.0 8.0 0.00 0.00 0.00 87 1010.6
20260901134047 61 258 3.0 9.0 0.00 0.00 0.00 88 1010.6
20260901133546 61 298 3.0 7.0 0.00 0.00 0.00 89 1010.6
20260901133044 60 243 2.0 3.0 0.00 0.00 0.00 89 1010.8
20260901132539 60 195 1.0 2.0 0.00 0.00 0.00 90 1010.6
20260901132039 60 271 1.0 3.0 0.00 0.00 0.00 90 1010.5
20260901131533 60 305 1.0 5.0 0.00 0.00 0.00 90 1010.8
20260901131028 59 206 0.0 2.0 0.00 0.00 0.00 91 1010.6
20260901130528 59 215 0.0 2.0 0.00 0.00 0.00 91 1010.6
20260901130027 59 233 0.0 2.0 0.00 0.00 0.00 91 1010.4
20260901125525 59 182 0.0 2.0 0.00 0.00 0.00 91 1010.2
20260901125021 59 215 3.0 3.0 0.00 0.00 0.00 91 1010.4
20260901124516 59 247 0.0 2.0 0.00 0.00 0.00 91 1010.3
20260901124015 59 187 1.0 3.0 0.00 0.00 0.00 91 1010.2
20260901123511 59 248 0.0 2.0 0.00 0.00 0.00 92 1010.2
20260901123010 59 282 1.0 2.0 0.00 0.00 0.00 92 1009.9
20260901122509 59 178 0.0 1.0 0.00 0.00 0.00 92 1009.9
20260901122008 59 216 0.0 1.0 0.00 0.00 0.00 92 1009.9
20260901121503 59 210 0.0 2.0 0.00 0.00 0.00 92 1010.0
20260901120958 59 215 0.0 0.0 0.00 0.00 0.00 92 1010.0
20260901120458 58 238 0.0 1.0 0.00 0.00 0.00 92 1009.8
20260901115953 58 204 1.0 2.0 0.00 0.00 0.00 92 1009.8
20260901115448 59 179 0.0 3.0 0.00 0.00 0.00 92 1009.8
20260901114946 58 302 1.0 3.0 0.00 0.00 0.00 92 1009.7
20260901114441 58 213 0.0 3.0 0.00 0.00 0.00 91 1009.6
20260901113939 58 228 0.0 1.0 0.00 0.00 0.00 91 1009.7
20260901113438 58 208 0.0 3.0 0.00 0.00 0.00 91 1009.3
20260901112928 59 227 0.0 1.0 0.00 0.00 0.00 91 1009.7
20260901112423 59 214 0.0 5.0 0.00 0.00 0.00 91 1009.6
20260901111918 59 214 0.0 2.0 0.00 0.00 0.00 90 1009.2
20260901111416 59 272 4.0 7.0 0.00 0.00 0.00 91 1009.2
20260901110915 59 228 1.0 3.0 0.00 0.00 0.00 90 1009.3
20260901110411 59 264 2.0 5.0 0.00 0.00 0.00 90 1009.3
20260901105907 59 236 2.0 5.0 0.00 0.00 0.00 90 1009.3
20260901105402 59 265 3.0 6.0 0.00 0.00 0.00 90 1009.2
20260901104858 59 273 2.0 6.0 0.00 0.00 0.00 90 1009.4
20260901104353 59 277 2.0 5.0 0.00 0.00 0.00 90 1009.3
20260901103848 59 212 0.0 5.0 0.00 0.00 0.00 90 1009.5
20260901103343 59 231 1.0 5.0 0.00 0.00 0.00 90 1009.3
20260901102837 59 271 2.0 3.0 0.00 0.00 0.00 89 1009.4
20260901102332 59 236 2.0 3.0 0.00 0.00 0.00 89 1009.2
20260901101828 59 312 4.0 7.0 0.00 0.00 0.00 90 1009.2
20260901101327 59 280 3.0 3.0 0.00 0.00 0.00 90 1009.3
20260901100826 58 289 3.0 5.0 0.00 0.00 0.00 90 1009.3
20260901100322 58 224 1.0 7.0 0.00 0.00 0.00 90 1009.1
20260901095820 58 316 2.0 6.0 0.00 0.00 0.00 90 1009.1
20260901095318 58 253 1.0 6.0 0.00 0.00 0.00 90 1009.3